Location: Aalen
(48.8330°N, 10.1000°E)
Time: 04:26:05
(UTC+01:00)

Envisat - Pass Details

Date: 06 December 2022
Orbit: 763 x 765 km, 98.2° (Epoch: 28 January)

Event Time Altitude Azimuth Distance (km) Brightness Sun altitude
Rises 06:46:27 0° 358° (N) 3,246 6.0 -11.1°
Reaches altitude 10° 06:50:44 10° 323° (NW) 2,313 5.0 -10.5°
Enters shadow 06:51:11 11° 318° (NW) 2,277 4.9 -10.4°
